Regional Weather Roundup
Issued by NWS

Home | Current Version | Previous Version | Text Only | Print | Product List | Glossary Off
Versions: 1 2 3 4 5 6 7 8 9 10 11 12 13 14 15 16 17 18 19 20 21 22 23 24 25 26 27 28 29 30 31 32 33 34 35 36 37 38 39 40 41 42 43 44 45 46 47 48 49 50

000
ASUS43 KFSD 181002
RWRSD

WEATHER ROUNDUP FOR SOUTH DAKOTA
NATIONAL WEATHER SERVICE SIOUX FALLS SD
400 AM CST SUN FEB 18 2018

NOTE: "FAIR" INDICATES FEW OR NO CLOUDS BELOW 12,000 FEET WITH NO
SIGNIFICANT WEATHER AND/OR OBSTRUCTIONS TO VISIBILITY.


SDZ001>005-009-010-012>017-181100-
NORTHWEST AND NORTH CENTRAL SOUTH DAKOTA

CITY           SKY/WX    TMP DP  RH WIND       PRES   REMARKS
BUFFALO          N/A     17  12  80 E9        29.40F WCI   6
FAITH            N/A     19  18  95 NE9       29.45F WCI   8
MOBRIDGE       CLOUDY    23  17  78 E24G32    29.52F WCI   7
$$

SDZ012>016-024>037-041>051-057-063-072>074-181100-
SOUTHWEST AND SOUTH CENTRAL SOUTH DAKOTA

CITY           SKY/WX    TMP DP  RH WIND       PRES   REMARKS
RAPID CTY ARPT CLOUDY    23  20  88 NE5       29.39F WCI  17
PIERRE         MOCLDY    30  25  81 SE17      29.48F WCI  18
CUSTER         CLOUDY    36  13  38 SW8       29.41F
ELLSWORTH AFB  CLOUDY    21  21  99 N5        29.40S WCI  15
PHILIP         CLOUDY    27  24  89 NW3       29.41F
PINE RIDGE     CLOUDY    39  23  52 S22G29    29.44F
SPEARFISH        N/A     19  18  93 W7        29.40F WCI  10
WINNER         FAIR      40  22  48 S26G38    29.50F
$$

SDZ004>011-016>023-039-040-181100-
NORTHEAST SOUTH DAKOTA

CITY           SKY/WX    TMP DP  RH WIND       PRES   REMARKS
ABERDEEN       MOCLDY    24  18  77 E14       29.70F WCI  12
WATERTOWN      CLOUDY    23  19  85 SE12G17   29.74F WCI  12
BROOKINGS      CLOUDY    23  20  88 SE21      29.78F WCI   8
SISSETON         N/A     20  17  88 SE9       29.81F WCI   9
$$

SDZ017-020-022-023-036>040-048>070-181100-
SOUTHEAST SOUTH DAKOTA

CITY           SKY/WX    TMP DP  RH WIND       PRES   REMARKS
SIOUX FALLS    PTCLDY    25  22  88 SE10      29.81F WCI  15
HURON          MOCLDY    29  24  82 SE22G39   29.64F WCI  15
CHAMBERLAIN    MOCLDY    34  27  76 SE18      29.56F WCI  23
MITCHELL       MOCLDY    30  25  81 SE24G38   29.68F WCI  16
YANKTON        PTCLDY    28  24  85 SE21      29.77F WCI  15
$$

ABBREVIATIONS USED IN REMARKS
   TC - TEMPERATURE IN CELSIUS
  WCI - WIND CHILL INDEX
   HX - HEAT INDEX
  VSB - VISIBILITY




USA.gov is the U.S. government's official web portal to all federal, state and local government web resources and services.